www.pogodaiklimat.ru

Погода и климат >> Архив погоды >> Индия >> Тамилнад >> Тонди


ПОГОДА в Тонди

  • Прогноз погоды в Тонди
  • Монитор погоды в Тонди

АРХИВ ПОГОДЫ в Тонди

Время (UTC), дата Ветер
(напр.,м/с)
 
Видим.   Явления Облачность Т
(С)
Тd
(С)
f
(%)
Тe
(С)
Тes
(С)
Комфортность P
(гПа)
Po
(гПа)
Тmin
(С)
Tmax
(С)
R
(мм)
R24
(мм)
S
(см)
12 18.05 Ю 5 10 км 8/3 600 м
[Sc Ac trans Ci sp]
+32.2 +27.5 76 +51 +51 опасность
перегрева
1006.2 1005.6 +37.4
15 18.05 ЮЗ 2 4000 м 5/3 600 м
[Sc Ci sp]
+30.0 +26.4 81 +46 +46 опасность
перегрева
1008.1 1007.5
18 18.05 Ю 3 4000 м 4/1 600 м
[Sc Ci sp]
+30.2 +27.2 84 +48 +48 опасность
перегрева
1008.3 1007.7
21 18.05 Ю 2 4000 м 4/1 600 м
[Sc Ci sp]
+30.0 +26.4 81 +46 +46 опасность
перегрева
1006.6 1006.0
00 19.05 Ю 2 4000 м 5/1 600 м
[Sc Ac trans Ci sp]
+29.8 +26.5 83 +46 +46 опасность
перегрева
1007.1 1006.5
03 19.05 Ю 2 10 км 4/3 600 м
[Sc Ci sp]
+31.6 +27.5 79 +51 +56 опасность
перегрева
1009.3 1008.7 +28.8 +37.4
06 19.05 Ю 3 10 км 4/1 600 м
[Sc Ci sp]
+35.6 +28.5 67 +58 +73 опасность
перегрева
1008.6 1008.0
09 19.05 Ю 3 10 км 4/1 600 м
[Sc Ci sp]
+34.2 +28.2 71 +55 +67 опасность
перегрева
1006.7 1006.1
12 19.05 Ю 5 10 км 3/1 600 м
[Sc Ci sp]
+31.8 +27.7 79 +51 +52 опасность
перегрева
1006.2 1005.6 +36.1
15 19.05 З 2 4000 м 3/1 600 м
[Sc Ci sp]
+30.2 +25.8 77 +45 +45 опасность
перегрева
1009.0 1008.4
18 19.05 ЮЗ 3 4000 м 3/1 600 м
[Sc Ci fib]
+30.0 +26.4 81 +46 +46 опасность
перегрева
1009.2 1008.6
21 19.05 ЮЗ 2 4000 м 4/3 600 м
[Sc Ci sp]
+29.8 +26.5 83 +46 +46 опасность
перегрева
1008.2 1007.6
00 20.05 ЮЗ 2 4000 м 6/4 600 м
[Sc Ci sp]
+29.6 +26.0 81 +44 +44 опасность
перегрева
1008.3 1007.7
03 20.05 ЮЗ 2 10 км 3/1 600 м
[Sc Ci fib]
+32.0 +27.3 76 +50 +57 опасность
перегрева
1010.3 1009.7 +28.7 +36.1
06 20.05 Ю 2 10 км 3/1 600 м
[Sc Ci sp]
+36.2 +29.2 67 +60 +78 опасность
перегрева
1009.9 1009.3
09 20.05 Ю 5 10 км 3/1 600 м
[Sc Ci sp]
+34.4 +29.3 75 +59 +66 опасность
перегрева
1007.6 1007.0
12 20.05 Ю 4 10 км 3/1 600 м
[Sc Ci sp]
+31.6 +27.8 80 +51 +52 опасность
перегрева
1006.7 1006.1 +36.6
15 20.05 Ю 2 4000 м 4/3 600 м
[Sc Ci sp]
+30.2 +26.9 83 +47 +47 опасность
перегрева
1008.1 1007.5
18 20.05 ЮЗ 2 4000 м 5/5 600 м
[Sc]
+29.8 +26.5 83 +46 +46 опасность
перегрева
1009.1 1008.5
21 20.05 ЮЗ 2 4000 м 6/5 600 м
[Sc Ci fib]
+29.4 +26.3 83 +45 +45 опасность
перегрева
1008.0 1007.4
00 21.05 ЮЗ 3 4000 м 6/5 600 м
[Sc Ci sp]
+29.5 +26.0 81 +44 +44 опасность
перегрева
1008.5 1007.9
03 21.05 Ю 2 10 км 4/3 600 м
[Sc Ci fib]
+31.4 +26.7 76 +48 +53 опасность
перегрева
1010.3 1009.7 +28.7 +36.6
06 21.05 Ю 2 10 км 3/1 600 м
[Sc Ci fib]
+34.6 +28.1 69 +56 +73 опасность
перегрева
1009.7 1009.1
09 21.05 Ю 5 10 км 1/0
[Ci fib]
+33.4 +27.4 71 +53 +60 опасность
перегрева
1007.6 1007.0
12 21.05 Ю 5 10 км 3/1 600 м
[Sc Ci fib]
+31.6 +27.2 78 +50 +51 опасность
перегрева
1006.6 1006.0 +35.0
15 21.05 Ю 4 4000 м 3/1 600 м
[Sc Ci fib]
+29.4 +26.0 82 +44 +44 опасность
перегрева
1009.0 1008.4
18 21.05 ЮЗ 3 4000 м 6/5 600 м
[Sc Ci fib]
+29.0 +25.6 82 +43 +43 опасность
перегрева
1009.1 1008.5
21 21.05 ЮЗ 4 4000 м 6/4 600 м
[Sc diur, vesp Ac trans Ci fib]
+28.6 +25.2 82 +42 +42 опасность
перегрева
1007.5 1006.9
00 22.05 Ю 3 4000 м 4/3 600 м
[Sc Ci fib]
+28.4 +25.0 82 +41 +41 опасность
перегрева
1007.8 1007.2
03 22.05 Ю 3 10 км 6/5 600 м
[Sc Ci fib]
+31.6 +27.5 79 +51 +54 опасность
перегрева
1009.3 1008.7 +28.4 +35.0
06 22.05 Ю 2 10 км 5/3 600 м
[Sc Ci sp]
+35.8 +29.1 68 +59 +73 опасность
перегрева
1009.4 1008.8
09 22.05 Ю 4 10 км 3/0
[Ci sp]
+34.2 +28.8 74 +58 +67 опасность
перегрева
1006.7 1006.1
12 22.05 Ю 3 10 км 6/4 600 м
[Sc Ci sp]
+31.8 +28.3 82 +53 +54 опасность
перегрева
1005.8 1005.2 +36.3
15 22.05 Ю 5 4000 м 6/5 600 м
[Sc Ci sp]
+30.6 +27.3 83 +49 +49 опасность
перегрева
1008.1 1007.5
18 22.05 З 2 4000 м 6/4 600 м
[Sc Ci sp]
+30.2 +28.7 92 +52 +52 опасность
перегрева
1008.8 1008.2
21 22.05 З 2 4000 м 6/5 600 м
[Sc Ci fib]
+30.0 +26.4 81 +46 +46 опасность
перегрева
1007.2 1006.6
00 23.05 Ю 3 4000 м 6/5 600 м
[Sc diur, vesp Ci fib]
+29.8 +26.5 83 +46 +46 опасность
перегрева
1007.4 1006.8
03 23.05 Ю 3 10 км 6/5 600 м
[Sc Ci sp]
+31.4 +27.3 79 +50 +53 опасность
перегрева
1009.4 1008.8 +29.0 +36.3
06 23.05 Ю 4 10 км 1/0 600 м
[Ci fib]
+35.0 +27.9 67 +56 +69 опасность
перегрева
1009.1 1008.5
09 23.05 Ю 5 10 км 3/0
[Ci sp]
+34.4 +28.2 70 +55 +63 опасность
перегрева
1006.2 1005.6
12 23.05 Ю 6 10 км 5/3 600 м
[Sc Ci fib]
+31.6 +27.8 80 +51 +51 опасность
перегрева
1005.7 1005.1 +35.7
15 23.05 Ю 6 4000 м 5/5 600 м
[Sc]
+30.8 +27.2 81 +49 +49 опасность
перегрева
1008.4 1007.8
18 23.05 ЮЗ 5 4000 м 8/6 600 м
[Sc Ci fib]
+29.8 +26.2 81 +45 +45 опасность
перегрева
1009.3 1008.7
21 23.05 ЮЗ 3 4000 м 8/5 600 м
[Sc Ci fib]
+29.8 +26.5 83 +46 +46 опасность
перегрева
1007.7 1007.1
00 24.05 Ю 3 4000 м 9/6 600 м
[Sc Ci fib]
+30.0 +26.7 83 +47 +47 опасность
перегрева
1008.0 1007.4
03 24.05 ЮЗ 3 10 км 8/5 600 м
[Sc Ci fib]
+31.4 +27.3 79 +50 +53 опасность
перегрева
1009.6 1009.0 +29.0 +35.7
06 24.05 Ю 4 10 км 4/1 600 м
[Sc Ci fib]
+34.0 +28.3 72 +55 +67 опасность
перегрева
1009.4 1008.8
09 24.05 Ю 4 10 км 8/4 600 м
[Sc diur, vesp Ac trans Ci fib]
+31.6 +27.5 79 +51 +55 опасность
перегрева
1007.3 1006.7
12 24.05 Ю 4 10 км 8/3 600 м
[Sc Ac trans Ci fib]
+31.0 +27.1 80 +49 +49 опасность
перегрева
1006.3 1005.7 +34.0
15 24.05 З 4 4000 м 4/3 600 м
[Sc Ci fib]
+29.8 +26.5 83 +46 +46 опасность
перегрева
1008.3 1007.7
18 24.05 ЮЗ 3 4000 м 4/3 600 м
[Sc Ci fib]
+29.4 +26.0 82 +44 +44 опасность
перегрева
1008.6 1008.0
21 24.05 З 2 4000 м 1/0
[Ci fib]
+28.8 +25.4 82 +42 +42 опасность
перегрева
1007.0 1006.4
00 25.05 З 2 4000 м 4/1 600 м
[Sc Ci fib]
+28.6 +25.2 82 +42 +42 опасность
перегрева
1007.2 1006.6
03 25.05 Ю 1 10 км 4/3 600 м
[Sc Ci fib]
+30.8 +27.2 81 +49 +55 опасность
перегрева
1008.7 1008.1 +28.4 +34.0
06 25.05 Ю 4 10 км 3/1 600 м
[Sc Ci fib]
+33.8 +28.4 73 +55 +67 опасность
перегрева
1008.1 1007.5

 

Местоположение метеостанции Тонди (Тамилнад, Индия): широта 9.73 долгота 79.03 высота над уровнем моря 5 м.

В архиве по умолчанию представлена погода в Тонди за последнюю неделю. Архивные данные за месяц целиком и за предыдущие месяцы, начиная с января 2011 года, Вы можете получить, выбрав интересующий диапазон дат из раскрывающегося списка и нажав кнопку "Ввод!".


*Определитесь, кто Вы:
робот инопланетянин человек

Внимание! Время в таблицах - всемирное. Для получения местного времени необходимо прибавить поправку, которая равна 5.5 ч.

Смотрите также архив погоды в соседних городах и на ближайших метеорологических станциях:

Погода на Памбане (Тамилнад, Индия) (54 км)
Погода в Адирампаттинаме (Тамилнад, Индия) (77 км)
Погода в Кудумиянмалае (Тамилнад, Индия) (84 км)
Погода в Мадурае (Тамилнад, Индия) (102 км)
Погода в Мадурай аэропорту (Тамилнад, Индия) (105 км)
Погода в Ковилангуламе (Тамилнад, Индия) (106 км)
Погода в Джафне (Шри Ланка) (109 км)
Погода в Танджавуре (Тамилнад, Индия) (117 км)
Погода в Тиручирапалли (Тамилнад, Индия) (121 км)
Погода в Маннаре (Шри Ланка) (128 км)

Пояснения к столбцам:

Ветер - указаны скорость ветра в м/с - средняя за 10 мин, порывы в срок и между сроками (в фигурных скобках) и направление, откуда дует ветер: С - северный, СВ - северо-восточный, В - восточный, ЮВ - юго-восточный, Ю - южный, ЮЗ - юго-западный, З - западный, СЗ - северо-западный.
Видимость - горизонтальная дальность видимости в метрах или километрах. При видимости от 1 до 10 км при отсутствии осадков обычно наблюдается дымка, при ухудшении видимости до 1 км и менее - туман. В сухую погоду видимость может ухудшаться дымом, пылью или мглою.
Явления - указаны атмосферные явления, наблюдавшиеся в срок или в последний час перед сроком; фигурными скобками обозначены явления, наблюдавшиеся между сроками (за 1-3 часа до срока); квадратными скобками обозначены град или гололедные отложения с указанием их диаметра в мм.
Облачность - указаны через наклонную черту общая и нижняя облачность в баллах и высота нижней границы облаков в метрах; квадратными скобками обозначены формы облаков: Ci - перистые, Cs - перисто-слоистые, Cc - перисто-кучевые, Ac - высококучевые, As - высокослоистые, Sc - слоисто-кучевые, Ns - слоисто-дождевые, Cu - кучевые, Cb - кучево-дождевые. Подробнее классификацию облаков см. в Атласе облаков (PDF).
T - Температура воздуха - температура, измеренная на высоте 2 м над землей.
Td - Температура точки росы - температура, при понижении до которой содержащийся в воздухе водяной пар достигнет насыщения.
f - Относительная влажность воздуха - влажноcть воздуха, измеренная на высоте 2 м над землей.
Te - Эффективная температура - температура, которую ощущает одетый по сезону человек в тени. Характеристика душности погоды. При расчете учитывается влияние влажности воздуха и скорости ветра на теплоощущения человека.
Tes - Эффективная температура на солнце - температура, которую ощущает человек, с поправкой на солнечный нагрев. Характеристика знойности погоды. Зависит от высоты солнца над горизонтом, облачности и скорости ветра. Ночью, в пасмурную погоду, а также при ветре 12 м/с и более поправка равна нулю.
P - Атмосферное давление - приведенное к уровню моря атмосферное давление.
Po - Атмосферное давление - измеренное на уровне метеостанции атмосферное давление.
Tmin - Минимальная температура - минимум температуры воздуха на высоте 2 м над землей.
Tmax - Максимальная температура - максимум температуры воздуха на высоте 2 м над землей.
R - Количество осадков - Количество выпавших осадков за период времени, мм. При наведении курсора мыши на число - период времени, за который выпало указанное количество осадков.
R24 - Количество осадков - Количество выпавших осадков за 24 часа, мм.
S - Снежный покров - Высота снежного покрова, см. При наведении курсора мыши на число - состояние снежного покрова и степень покрытия местности в баллах.